User: anonymous   Login
Location: Lourdes
(43.1000°N, 0.0500°W)
Time: 22:09:01
(UTC+00:00)
Language:

PSLV DEB - Orbit

View from above orbital plane
View from above orbital plane
View from above satellite
View from above satellite

Ground track
Ground track

The orbit data is extracted from the following two-line orbital elements,

1 28853U 01049PF  21174.74680987  .00000323  00000-0  45165-4 0  9997
2 28853  98.1150 168.6362 0037277 120.6732  53.6487 14.84033325434367
Epoch (UTC): 23 June 2021 17:55:24
Eccentricity: 0.0037277
inclination: 98.1150°
perigee height: 590 km
apogee height: 643 km
right ascension of ascending node: 168.6362°
argument of perigee: 120.6732°
revolutions per day: 14.84033325
mean anomaly at epoch: 53.6487°
orbit number at epoch: 43436

The dashed part of the orbit path shows where the satellite is in the earth's shadow,  

DLR